This demonstration page uses our WeatherBlox Daily Observations layout. Learn more.

Left ArrowRight Arrow

40.92945, -100.16068

Hourly Observations for September 26, 2016

Temp ( °F °C ) Dew Point ( °F °C ) Humidity (%) Winds ( mph kmh ) Pressure ( in mb ) Visibility ( mi km ) Precip ( " mm )
12:15 am 00:15 Clear 41 5.2 32 0 69 69 WNW 6 9 30.39 1029 10 16 N/A
12:35 am 00:35 Clear 40 4.6 32 0 72 72 WNW 6 9 30.39 1029 10 16 N/A
12:55 am 00:55 Clear 40 4.5 32 0 73 73 WNW 7 11 30.39 1029 10 16 N/A
1:15 am 01:15 Clear 38 3.6 32 0 78 78 WNW 7 11 30.39 1029 10 16 N/A
1:35 am 01:35 Clear 39 4 32 0 75 75 NW 6 9 30.39 1029 10 16 N/A
1:55 am 01:55 Clear 38 3.4 32 0 79 79 WNW 7 11 30.42 1030 10 16 N/A
2:15 am 02:15 Clear 38 3.5 32 0 78 78 WNW 7 11 30.42 1030 10 16 N/A
2:35 am 02:35 Clear 39 3.8 32 0.2 78 78 WNW 3 6 30.42 1030 10 16 N/A
2:55 am 02:55 Clear 37 2.8 32 -0.1 81 81 WNW 5 7 30.42 1030 10 16 N/A
3:15 am 03:15 Clear 37 2.5 32 -0.1 83 83 WNW 5 7 30.42 1030 10 16 N/A
3:35 am 03:35 Clear 37 2.7 32 0 83 83 WNW 6 9 30.45 1031 10 16 N/A
3:55 am 03:55 Clear 37 2.9 32 0 81 81 WNW 7 11 30.45 1031 10 16 N/A
4:15 am 04:15 Clear 37 2.9 32 0 81 81 WNW 5 7 30.42 1030 10 16 N/A
4:35 am 04:35 Clear 37 2.6 32 0 83 83 WNW 6 9 30.42 1030 10 16 N/A
4:55 am 04:55 Clear 37 2.5 32 0 84 84 WNW 8 13 30.42 1030 10 16 N/A
5:15 am 05:15 Clear 37 2.6 32 0 83 83 NW 5 7 30.42 1030 10 16 N/A
5:35 am 05:35 Clear 36 2.3 32 0 85 85 WNW 5 7 30.42 1030 10 16 N/A
5:55 am 05:55 Clear 37 2.5 32 0 84 84 WNW 6 9 30.45 1031 10 16 N/A
6:15 am 06:15 Clear 37 2.5 32 0 84 84 W 5 7 30.42 1030 10 16 N/A
6:35 am 06:35 Clear 36 2.2 32 0.1 86 86 W 3 6 30.42 1030 10 16 N/A
6:55 am 06:55 Clear 36 2.4 32 0 84 84 WNW 3 6 30.42 1030 10 16 N/A
7:15 am 07:15 Clear 36 2 32 0 87 87 WNW 5 7 30.42 1030 10 16 N/A
7:35 am 07:35 Sunny 35 1.5 31 -0.3 88 88 WNW 6 9 30.42 1030 10 16 N/A
7:55 am 07:55 Sunny 36 2.4 32 0.2 86 86 W 3 6 30.42 1030 10 16 N/A
8:15 am 08:15 Sunny 38 3.3 34 1.1 86 86 W 3 6 30.42 1030 10 16 N/A
8:35 am 08:35 Sunny 41 4.9 35 1.9 81 81 WNW 3 6 30.39 1029 10 16 N/A
8:55 am 08:55 Sunny 44 6.7 36 2.1 73 73 W 5 7 30.36 1028 10 16 N/A
9:15 am 09:15 Sunny 47 8.2 36 2.2 66 66 WNW 6 9 30.36 1028 10 16 N/A
9:35 am 09:35 Sunny 49 9.4 37 2.7 63 63 WNW 3 6 30.36 1028 10 16 N/A
9:55 am 09:55 Sunny 54 12.1 38 3.1 54 54 W 6 9 30.33 1027 10 16 N/A
10:15 am 10:15 Sunny 58 14.4 37 2.7 46 46 W 7 11 30.30 1026 10 16 N/A
10:35 am 10:35 Sunny 62 16.7 36 2.2 38 38 W 8 13 30.27 1025 10 16 N/A
10:55 am 10:55 Sunny 65 18.6 31 -0.4 28 28 WSW 12 19 30.27 1025 10 16 N/A
11:15 am 11:15 Sunny 67 19.5 30 -1 25 25 WSW 12 19 30.21 1023 10 16 N/A
11:35 am 11:35 Sunny 68 20.1 29 -1.4 24 24 WSW 13 20 30.21 1023 10 16 N/A
11:55 am 11:55 Sunny 69 20.5 30 -1.1 24 24 W 15 24 30.21 1023 10 16 N/A
12:15 pm 12:15 Sunny 70 20.9 32 -0.2 24 24 WSW 13 20 30.21 1023 10 16 N/A
12:35 pm 12:35 Sunny 71 21.6 30 -1 22 22 WSW 10 17 30.18 1022 10 16 N/A
12:55 pm 12:55 Sunny 73 22.5 31 -0.5 22 22 W 8 13 30.15 1021 10 16 N/A
1:15 pm 13:15 Sunny 73 22.8 32 0.2 22 22 WNW 14 22 30.12 1020 10 16 N/A
1:35 pm 13:35 Sunny 74 23.2 34 1.2 24 24 W 9 15 30.12 1020 10 16 N/A
1:55 pm 13:55 Sunny 75 23.7 36 2.3 25 25 W 16 26 30.12 1020 10 16 N/A
2:15 pm 14:15 Sunny 75 24 36 2.4 24 24 NW 15 24 30.12 1020 10 16 N/A
2:35 pm 14:35 Sunny 76 24.4 37 2.7 24 24 W 13 20 30.09 1019 10 16 N/A
2:55 pm 14:55 Sunny 76 24.6 37 2.8 24 24 W 15 24 30.09 1019 10 16 N/A
3:15 pm 15:15 Sunny 76 24.6 37 2.7 24 24 WNW 9 15 30.09 1019 10 16 N/A
3:35 pm 15:35 Sunny 77 25 38 3.2 24 24 W 10 17 30.03 1017 10 16 N/A
3:55 pm 15:55 Sunny 77 25.1 39 3.7 25 25 NW 10 17 30.03 1017 10 16 N/A
4:15 pm 16:15 Sunny 77 25.1 38 3.5 25 25 NW 8 13 30.03 1017 10 16 N/A
4:55 pm 16:55 Sunny 78 25.5 38 3.5 24 24 NNW 12 19 30.03 1017 10 16 N/A
5:15 pm 17:15 Sunny 77 25.2 38 3.5 25 25 NNW 8 13 30.00 1016 10 16 N/A
5:35 pm 17:35 Sunny 76 24.7 39 3.8 26 26 NNW 9 15 30.00 1016 10 16 N/A
6:15 pm 18:15 Sunny 75 24.1 39 3.9 27 27 NNW 8 13 30.03 1017 10 16 N/A
6:35 pm 18:35 Sunny 74 23.2 40 4.6 30 30 NNW 6 9 30.03 1017 10 16 N/A
6:55 pm 18:55 Sunny 72 22.2 41 5.1 33 33 NNW 5 7 30.03 1017 10 16 N/A
7:15 pm 19:15 Sunny 71 21.5 41 4.8 34 34 NNW 5 7 30.03 1017 10 16 N/A
7:35 pm 19:35 Clear 67 19.5 42 5.3 40 40 NNW 6 9 30.06 1018 10 16 N/A
7:55 pm 19:55 Clear 64 17.6 43 6.3 48 48 NNW 5 7 30.09 1019 10 16 N/A
8:15 pm 20:15 Clear 60 15.5 43 6.2 54 54 Calm 30.09 1019 10 16 N/A
8:35 pm 20:35 Clear 59 15.1 43 6.1 55 55 Calm 30.09 1019 10 16 N/A
8:55 pm 20:55 Clear 60 15.4 43 6 54 54 Calm 30.09 1019 10 16 N/A
9:15 pm 21:15 Clear 58 14.7 43 6.3 57 57 Calm 30.12 1020 10 16 N/A
9:35 pm 21:35 Clear 55 12.8 45 7 68 68 Calm 30.15 1021 7 11 N/A
9:55 pm 21:55 Hazy 53 11.7 45 7 73 73 Calm 30.15 1021 5 8 N/A
10:15 pm 22:15 Clear 54 12.1 45 7 71 71 Calm 30.15 1021 7 11 N/A
10:35 pm 22:35 Clear 53 11.4 45 7 75 75 W 3 6 30.18 1022 10 16 N/A
10:55 pm 22:55 Clear 51 10.6 44 6.9 78 78 Calm 30.18 1022 7 11 N/A
11:15 pm 23:15 Clear 49 9.6 44 6.6 82 82 NW 3 6 30.18 1022 10 16 N/A
11:35 pm 23:35 Clear 49 9.6 44 6.6 82 82 N 3 6 30.18 1022 7 11 N/A
11:55 pm 23:55 Clear 49 9.6 43 6.3 80 80 Calm 30.18 1022 7 11 N/A

Powered by AerisWeather